Location: Te Maire Creek
(41.1333°S, 175.9167°E)
Time: 00:37:48
(UTC+00:00)

Cosmos 1437 Rocket - Pass Details

Date: 19 May 2024
Orbit: 478 x 532 km, 81.2° (Epoch: 18 June)

Event Time Altitude Azimuth Distance (km) Brightness Sun altitude
Exits shadow 17:33:24 63° 286° (WNW) 573 2.6 -20.3°
Drops below altitude 10° 17:37:06 10° 358° (N) 1,736 5.4 -19.6°
Sets 17:39:14 0° 1° (N) 2,623 6.4 -19.2°
